QPF
0.02 0.00 0.00 0.00 0.00 0.00 0.00 0.00 0.00 0.00 0.00 0.00 0.00 0.00 0.00 0.00 0.00 0.00 0.00 0.00 0.00 0.00 0.00 0.00 0.00 0.00 0.00 0.00 0.00 0.06 0.11 0.06 0.01 0.00 0.00 0.00 0.00 0.00 0.01 0.00 0.00 0.00 0.00
0.00 0.00 0.00 0.00 0.00 0.00 0.00 0.00 0.00 0.00 0.00 0.00 0.00 0.00 0.00 0.00 0.00 0.00 0.00 0.00 0.00 0.00 0.00 0.00 0.00 0.00 0.00 0.00 0.00 0.00 0.00 0.01 0.00 0.00 0.00 0.00 0.00 0.00 0.01 0.00 0.00 0.00 0.00
0.00 0.00 0.00 0.00 0.01 0.00 0.00 0.00 0.00 0.00 0.00 0.00 0.00 0.00 0.00 0.00 0.00 0.00 0.00 0.00 0.00 0.00 0.00 0.00 0.00 0.00 0.00 0.00 0.00 0.00 0.00 0.00 0.00 0.00 0.00 0.00 0.01 0.02 0.01 0.02 0.02 0.00 0.00
0.00 0.01 0.00 0.01 0.07 0.06 0.00 0.00 0.00 0.00 0.00 0.00 0.00 0.00 0.00 0.00 0.00 0.00 0.00 0.00 0.00 0.00 0.00 0.00 0.00 0.00 0.00 0.00 0.00 0.00 0.00 0.00 0.00 0.01 0.01 0.01 0.01 0.02 0.02 0.02 0.01 0.00 0.00
0.00 0.01 0.00 0.07 0.09 0.11 0.01 0.00 0.00 0.00 0.00 0.00 0.00 0.00 0.00 0.00 0.00 0.00 0.00 0.00 0.00 0.00 0.00 0.00 0.00 0.00 0.00 0.00 0.00 0.00 0.00 0.00 0.00 0.01 0.01 0.01 0.00 0.01 0.02 0.02 0.02 0.00 0.00
0.00 0.00 0.00 0.08 0.15 0.16 0.06 0.01 0.00 0.00 0.00 0.00 0.00 0.00 0.00 0.00 0.00 0.00 0.00 0.00 0.00 0.00 0.00 0.00 0.00 0.00 0.00 0.00 0.00 0.00 0.00 0.00 0.00 0.00 0.00 0.01 0.01 0.00 0.01 0.01 0.00 0.00 0.00
0.02 0.02 0.17 0.22 0.16 0.17 0.15 0.05 0.00 0.00 0.00 0.00 0.00 0.00 0.00 0.00 0.00 0.00 0.00 0.00 0.00 0.00 0.00 0.00 0.00 0.00 0.00 0.00 0.00 0.00 0.00 0.00 0.00 0.00 0.00 0.00 0.00 0.01 0.00 0.00 0.00 0.00 0.00
0.09 0.05 0.18 0.12 0.13 0.20 0.20 0.03 0.00 0.00 0.00 0.00 0.00 0.00 0.00 0.00 0.00 0.00 0.00 0.00 0.00 0.00 0.00 0.00 0.00 0.00 0.00 0.00 0.00 0.00 0.00 0.00 0.00 0.00 0.00 0.00 0.00 0.00 0.00 0.00 0.00 0.00 0.00
0.15 0.14 0.16 0.16 0.14 0.16 0.11 0.01 0.01 0.00 0.00 0.00 0.00 0.00 0.00 0.00 0.00 0.00 0.00 0.00 0.00 0.00 0.00 0.00 0.00 0.00 0.00 0.00 0.00 0.00 0.00 0.00 0.00 0.00 0.00 0.00 0.00 0.00 0.00 0.00 0.00 0.00 0.00
0.08 0.09 0.12 0.09 0.07 0.07 0.01 0.00 0.00 0.01 0.00 0.00 0.00 0.00 0.00 0.00 0.00 0.00 0.00 0.00 0.00 0.00 0.00 0.00 0.00 0.00 0.00 0.00 0.00 0.00 0.00 0.00 0.00 0.00 0.00 0.00 0.00 0.00 0.00 0.00 0.00 0.00 0.00
0.04 0.09 0.10 0.06 0.02 0.00 0.00 0.00 0.02 0.02 0.00 0.00 0.00 0.00 0.00 0.00 0.00 0.00 0.00 0.00 0.00 0.00 0.00 0.00 0.00 0.00 0.00 0.00 0.00 0.00 0.00 0.00 0.00 0.00 0.00 0.00 0.00 0.00 0.00 0.00 0.00 0.00 0.00
0.08 0.10 0.08 0.04 0.00 0.00 0.00 0.01 0.02 0.01 0.00 0.00 0.00 0.00 0.01 0.00 0.01 0.00 0.00 0.00 0.00 0.00 0.00 0.00 0.00 0.00 0.00 0.00 0.00 0.00 0.00 0.00 0.00 0.00 0.00 0.00 0.00 0.00 0.00 0.00 0.00 0.00 0.00
0.12 0.07 0.05 0.02 0.00 0.00 0.01 0.00 0.00 0.00 0.00 0.00 0.01 0.00 0.00 0.01 0.01 0.01 0.00 0.00 0.00 0.00 0.00 0.00 0.00 0.00 0.00 0.00 0.00 0.00 0.00 0.00 0.00 0.00 0.00 0.00 0.00 0.00 0.00 0.00 0.00 0.00 0.00
0.09 0.06 0.01 0.00 0.00 0.00 0.01 0.00 0.00 0.00 0.00 0.01 0.01 0.01 0.00 0.00 0.00 0.00 0.00 0.00 0.00 0.00 0.00 0.00 0.00 0.00 0.00 0.00 0.00 0.00 0.00 0.00 0.00 0.00 0.00 0.00 0.00 0.00 0.00 0.00 0.00 0.00 0.00
0.03 0.01 0.00 0.00 0.00 0.00 0.00 0.00 0.00 0.01 0.01 0.01 0.00 0.00 0.00 0.00 0.00 0.00 0.00 0.00 0.00 0.00 0.00 0.00 0.00 0.00 0.00 0.00 0.00 0.00 0.00 0.00 0.00 0.00 0.00 0.00 0.00 0.00 0.00 0.00 0.00 0.00 0.00
0.00 0.00 0.00 0.00 0.00 0.00 0.00 0.00 0.00 0.00 0.00 0.00 0.00 0.00 0.00 0.00 0.00 0.00 0.00 0.00 0.00 0.00 0.00 0.00 0.00 0.00 0.00 0.00 0.00 0.00 0.00 0.00 0.00 0.00 0.00 0.00 0.00 0.00 0.00 0.00 0.00 0.00 0.00
0.00 0.00 0.00 0.00 0.00 0.00 0.00 0.00 0.00 0.00 0.00 0.00 0.00 0.00 0.00 0.00 0.00 0.00 0.00 0.00 0.00 0.00 0.00 0.00 0.00 0.00 0.00 0.00 0.00 0.00 0.00 0.00 0.00 0.00 0.00 0.00 0.00 0.00 0.00 0.00 0.00 0.00 0.00
0.00 0.00 0.00 0.00 0.00 0.00 0.00 0.00 0.00 0.00 0.00 0.00 0.00 0.00 0.00 0.00 0.00 0.00 0.00 0.00 0.00 0.00 0.00 0.00 0.00 0.00 0.00 0.00 0.00 0.00 0.00 0.00 0.00 0.00 0.00 0.00 0.00 0.00 0.00 0.00 0.00 0.00 0.00
0.00 0.00 0.00 0.00 0.00 0.00 0.00 0.00 0.00 0.00 0.00 0.00 0.00 0.00 0.00 0.00 0.00 0.00 0.00 0.00 0.00 0.00 0.00 0.00 0.00 0.00 0.00 0.00 0.00 0.00 0.00 0.00 0.00 0.00 0.00 0.00 0.00 0.00 0.00 0.00 0.00 0.00 0.00
0.00 0.00 0.00 0.00 0.00 0.00 0.00 0.00 0.00 0.00 0.00 0.00 0.00 0.00 0.00 0.00 0.00 0.00 0.00 0.00 0.00 0.00 0.00 0.00 0.00 0.00 0.00 0.00 0.00 0.00 0.00 0.00 0.00 0.00 0.00 0.00 0.00 0.00 0.00 0.00 0.00 0.00 0.00
0.00 0.00 0.00 0.00 0.00 0.00 0.00 0.00 0.00 0.00 0.00 0.00 0.00 0.00 0.00 0.00 0.00 0.00 0.00 0.00 0.00 0.00 0.00 0.00 0.00 0.00 0.00 0.00 0.00 0.00 0.00 0.00 0.00 0.00 0.00 0.00 0.00 0.00 0.00 0.00 0.00 0.00 0.00
0.00 0.00 0.00 0.00 0.00 0.00 0.00 0.00 0.00 0.00 0.00 0.00 0.00 0.00 0.00 0.00 0.00 0.00 0.00 0.00 0.00 0.00 0.00 0.00 0.00 0.00 0.00 0.00 0.00 0.00 0.00 0.00 0.00 0.00 0.00 0.00 0.00 0.00 0.00 0.00 0.00 0.00 0.00
0.00 0.00 0.00 0.00 0.00 0.00 0.00 0.00 0.00 0.00 0.00 0.00 0.00 0.00 0.00 0.00 0.00 0.00 0.00 0.00 0.00 0.00 0.00 0.00 0.00 0.00 0.00 0.00 0.00 0.00 0.00 0.00 0.00 0.00 0.00 0.00 0.00 0.00 0.00 0.00 0.00 0.00 0.00
0.00 0.00 0.00 0.00 0.00 0.00 0.00 0.00 0.00 0.00 0.00 0.00 0.00 0.00 0.00 0.00 0.00 0.00 0.00 0.00 0.00 0.00 0.00 0.00 0.00 0.00 0.00 0.00 0.00 0.00 0.00 0.00 0.00 0.00 0.00 0.00 0.00 0.00 0.00 0.00 0.00 0.00 0.00
0.00 0.00 0.00 0.00 0.00 0.00 0.00 0.00 0.00 0.00 0.00 0.00 0.00 0.00 0.00 0.00 0.00 0.00 0.00 0.00 0.00 0.00 0.00 0.00 0.00 0.00 0.00 0.00 0.00 0.00 0.00 0.00 0.00 0.00 0.00 0.00 0.00 0.00 0.00 0.00 0.00 0.00 0.00
0.00 0.00 0.00 0.00 0.00 0.00 0.00 0.00 0.00 0.00 0.00 0.00 0.00 0.00 0.00 0.00 0.00 0.00 0.00 0.00 0.00 0.00 0.00 0.00 0.00 0.00 0.00 0.00 0.00 0.00 0.00 0.00 0.00 0.00 0.00 0.00 0.00 0.00 0.00 0.00 0.00 0.00 0.00
MSLP
1015.48 1015.56 1016.47 1016.52 1016.55 1016.72 1016.66 1016.96 1017.12 1017.10 1017.01 1016.99 1017.07 1016.91 1016.76 1016.68 1016.65 1016.36 1016.38 1016.38 1016.26 1016.19 1015.93 1015.73 1015.71 1015.54 1015.40 1015.25 1015.24 1015.44 1015.73 1015.90 1016.74 1017.60 1017.90 1018.36 1018.75 1019.05 1019.14 1019.16 1019.32 1019.36 1019.39
1015.45 1015.69 1016.46 1016.51 1016.68 1016.86 1016.80 1017.05 1017.39 1017.46 1017.47 1017.43 1017.41 1017.42 1017.41 1017.31 1017.23 1017.09 1017.13 1017.11 1017.06 1016.94 1016.86 1016.59 1016.45 1016.16 1016.12 1016.01 1015.92 1015.93 1015.91 1015.99 1016.49 1017.40 1018.21 1018.84 1019.33 1019.61 1019.69 1019.80 1020.01 1020.00 1019.94
1015.35 1015.90 1016.38 1016.53 1016.93 1017.02 1017.04 1017.29 1017.49 1017.71 1017.82 1017.87 1017.92 1017.94 1017.87 1018.05 1018.00 1017.85 1017.90 1017.92 1017.74 1017.77 1017.62 1017.36 1017.14 1016.86 1016.82 1016.75 1016.65 1016.59 1016.50 1016.43 1016.71 1017.30 1018.28 1019.01 1019.68 1019.99 1020.18 1020.37 1020.52 1020.62 1020.60
1014.92 1015.91 1016.28 1016.64 1017.21 1017.24 1017.22 1017.44 1017.85 1017.94 1018.10 1018.24 1018.49 1018.45 1018.41 1018.46 1018.54 1018.52 1018.47 1018.48 1018.44 1018.41 1018.35 1018.14 1017.89 1017.71 1017.62 1017.47 1017.31 1017.15 1016.94 1017.00 1017.37 1017.97 1018.67 1019.22 1019.69 1020.26 1020.40 1020.71 1021.02 1021.18 1021.28
1014.48 1015.31 1016.00 1016.70 1017.16 1017.40 1017.24 1017.55 1017.93 1018.19 1018.38 1018.64 1018.82 1018.73 1018.96 1019.01 1019.07 1019.10 1019.03 1019.07 1019.08 1019.03 1018.96 1018.75 1018.58 1018.30 1018.02 1017.82 1017.72 1017.84 1017.75 1017.87 1018.12 1018.52 1018.96 1019.49 1019.86 1020.30 1020.53 1020.82 1021.24 1021.40 1021.47
1015.05 1015.25 1015.90 1016.45 1017.09 1017.30 1017.43 1017.65 1018.02 1018.42 1018.77 1018.78 1019.08 1019.08 1019.34 1019.62 1019.42 1019.34 1019.48 1019.52 1019.51 1019.54 1019.62 1019.38 1019.15 1018.90 1018.63 1018.48 1018.38 1018.38 1018.36 1018.48 1018.76 1019.08 1019.47 1019.75 1020.00 1020.27 1020.56 1020.87 1021.23 1021.48 1021.67
1015.40 1015.60 1016.09 1016.38 1016.59 1017.24 1017.68 1017.76 1018.23 1018.63 1018.99 1019.14 1019.33 1019.47 1019.73 1019.83 1019.71 1019.64 1019.73 1019.90 1020.02 1020.20 1020.18 1020.07 1019.88 1019.72 1019.45 1019.22 1019.13 1019.07 1019.09 1019.11 1019.12 1019.21 1019.78 1020.08 1020.21 1020.29 1020.56 1020.91 1021.21 1021.38 1021.61
1015.67 1016.16 1016.12 1016.40 1016.66 1017.26 1017.71 1017.95 1018.35 1018.66 1018.94 1019.38 1019.67 1019.91 1020.01 1020.24 1020.11 1020.08 1020.19 1020.31 1020.52 1020.67 1020.68 1020.64 1020.58 1020.49 1020.34 1020.14 1020.04 1020.07 1020.15 1020.03 1020.02 1020.06 1020.17 1020.31 1020.21 1020.20 1020.37 1020.78 1021.08 1021.59 1021.88
1015.77 1016.39 1016.98 1017.04 1016.86 1017.17 1017.58 1017.95 1018.27 1018.57 1019.10 1019.60 1020.05 1020.29 1020.37 1020.55 1020.50 1020.52 1020.59 1020.82 1021.02 1021.08 1021.03 1020.96 1020.93 1020.96 1020.81 1020.76 1020.75 1021.02 1021.06 1020.96 1020.64 1020.52 1020.58 1020.65 1020.67 1020.60 1020.80 1021.16 1021.54 1021.68 1021.97
1015.82 1016.83 1017.17 1017.30 1017.26 1017.17 1017.23 1017.82 1018.27 1018.88 1019.18 1019.75 1020.49 1020.82 1020.87 1020.83 1020.74 1020.68 1020.76 1021.03 1021.45 1021.52 1021.43 1021.39 1021.21 1021.26 1021.03 1021.09 1021.32 1021.50 1021.66 1021.73 1021.38 1021.18 1021.27 1021.31 1021.33 1021.38 1021.27 1021.31 1021.46 1021.71 1021.78
1016.50 1017.21 1017.66 1017.27 1017.57 1017.26 1017.30 1017.71 1018.48 1019.18 1019.85 1020.37 1020.67 1021.11 1021.30 1021.26 1021.09 1020.93 1021.04 1021.09 1021.31 1021.74 1021.83 1021.87 1021.81 1021.64 1021.50 1021.36 1021.44 1021.65 1021.71 1021.72 1021.84 1021.84 1022.01 1022.06 1022.03 1022.01 1021.99 1021.83 1021.70 1021.71 1021.82
1017.14 1017.79 1017.88 1017.67 1018.03 1017.53 1017.34 1018.03 1018.83 1019.59 1020.28 1020.82 1021.26 1021.55 1021.62 1021.67 1021.50 1021.33 1021.17 1021.29 1021.35 1021.62 1022.06 1022.15 1022.23 1022.12 1022.01 1021.95 1021.86 1021.84 1021.61 1021.69 1022.04 1022.33 1022.55 1022.73 1022.64 1022.48 1022.25 1022.01 1021.84 1021.81 1021.75
1017.96 1018.32 1018.20 1018.44 1018.56 1018.37 1018.03 1018.52 1019.10 1019.77 1020.41 1021.13 1021.54 1021.82 1021.95 1021.97 1022.01 1021.80 1021.63 1021.53 1021.52 1021.84 1022.03 1022.29 1022.28 1022.35 1022.29 1022.26 1022.29 1022.22 1022.19 1022.25 1022.50 1022.89 1023.05 1023.05 1022.82 1022.68 1022.40 1022.07 1021.84 1021.84 1021.79
1019.11 1018.96 1018.71 1019.00 1019.07 1019.02 1019.04 1019.30 1019.73 1020.15 1020.67 1021.24 1021.54 1021.89 1022.21 1022.36 1022.42 1022.39 1022.22 1022.16 1022.05 1022.29 1022.24 1022.41 1022.45 1022.52 1022.53 1022.67 1022.57 1022.66 1022.73 1022.74 1022.72 1023.08 1023.23 1023.06 1022.97 1022.83 1022.72 1022.54 1022.43 1022.30 1022.33
1019.03 1019.56 1019.49 1019.58 1019.71 1020.05 1020.44 1020.52 1020.49 1020.80 1020.74 1021.19 1021.52 1021.81 1022.20 1022.58 1022.84 1022.82 1022.67 1022.66 1022.61 1022.52 1022.57 1022.57 1022.73 1022.86 1022.95 1023.08 1023.17 1023.19 1023.14 1023.10 1023.18 1023.18 1023.25 1023.24 1023.14 1023.01 1022.87 1022.70 1022.66 1022.62 1022.63
1019.69 1019.80 1019.79 1020.09 1020.27 1020.69 1021.11 1021.36 1021.30 1021.28 1021.41 1021.59 1021.69 1021.84 1022.38 1022.47 1022.83 1022.88 1022.78 1022.65 1022.65 1022.50 1022.85 1023.13 1023.25 1023.30 1023.40 1023.49 1023.53 1023.61 1023.58 1023.58 1023.52 1023.43 1023.47 1023.49 1023.49 1023.44 1023.32 1023.04 1022.83 1022.83 1022.76
1019.99 1020.04 1020.45 1020.38 1020.74 1021.18 1021.53 1021.66 1021.86 1022.10 1022.11 1022.20 1022.25 1022.27 1022.35 1022.87 1022.99 1023.04 1022.99 1022.88 1023.00 1022.77 1023.11 1023.41 1023.58 1023.66 1023.74 1023.78 1023.73 1023.71 1023.82 1023.65 1023.58 1023.54 1023.54 1023.53 1023.47 1023.36 1023.35 1023.24 1023.05 1022.85 1022.57
1019.90 1020.39 1020.45 1020.72 1020.76 1021.47 1021.88 1021.96 1021.95 1022.06 1022.35 1022.62 1022.67 1022.77 1022.80 1023.00 1023.20 1023.24 1023.16 1022.98 1023.41 1023.39 1023.52 1023.58 1023.67 1023.78 1023.86 1023.85 1023.80 1023.63 1023.69 1023.66 1023.59 1023.61 1023.59 1023.55 1023.49 1023.46 1023.33 1023.16 1023.00 1022.88 1022.66
1019.74 1020.20 1020.52 1020.69 1021.05 1021.70 1021.97 1022.04 1022.01 1022.14 1022.38 1022.64 1022.78 1022.74 1022.86 1023.13 1023.31 1023.31 1023.35 1023.41 1023.58 1023.58 1023.53 1023.53 1023.35 1023.45 1023.58 1023.59 1023.54 1023.59 1023.67 1023.71 1023.59 1023.55 1023.47 1023.40 1023.31 1023.32 1023.18 1023.03 1022.88 1022.66 1022.54
1019.25 1019.74 1020.20 1020.51 1021.09 1021.61 1021.78 1021.75 1021.88 1022.09 1022.39 1022.61 1022.68 1022.75 1022.85 1023.18 1023.35 1023.41 1023.36 1023.36 1023.45 1023.37 1023.30 1023.28 1023.12 1023.10 1023.02 1023.09 1023.20 1023.42 1023.52 1023.51 1023.40 1023.30 1023.20 1023.14 1023.01 1022.94 1022.86 1022.72 1022.63 1022.64 1022.39
1018.85 1019.51 1019.74 1020.41 1020.86 1021.24 1021.39 1021.53 1021.62 1021.72 1021.75 1022.14 1022.34 1022.22 1022.49 1022.86 1023.01 1023.06 1023.19 1023.15 1023.12 1023.01 1022.88 1022.82 1022.83 1022.87 1022.97 1022.97 1023.00 1023.12 1023.29 1023.19 1023.12 1023.10 1023.00 1022.79 1022.63 1022.56 1022.22 1022.15 1022.12 1022.00 1022.05
1018.45 1018.84 1019.50 1019.90 1020.04 1020.44 1020.76 1020.94 1021.21 1021.19 1021.22 1021.39 1021.74 1021.98 1022.20 1022.64 1022.92 1023.01 1023.09 1022.96 1022.76 1022.59 1022.46 1022.46 1022.64 1022.87 1022.87 1023.08 1023.20 1023.32 1023.39 1023.40 1023.17 1023.04 1022.83 1022.62 1022.44 1022.20 1022.00 1021.73 1021.59 1021.53 1021.55
1018.36 1018.89 1019.26 1019.60 1019.76 1019.89 1020.22 1020.49 1020.76 1020.62 1020.63 1020.79 1021.30 1021.74 1021.99 1022.29 1022.57 1022.77 1022.76 1022.48 1022.35 1022.23 1022.21 1022.30 1022.62 1023.29 1023.59 1023.82 1023.87 1023.91 1023.90 1023.89 1023.66 1023.18 1022.69 1022.31 1022.03 1021.78 1021.56 1021.49 1021.27 1021.15 1021.07
1017.80 1018.26 1018.82 1019.29 1019.70 1020.15 1020.27 1020.39 1020.47 1020.45 1020.46 1020.68 1020.89 1021.25 1021.67 1022.05 1022.38 1022.72 1022.89 1022.91 1023.01 1023.33 1023.36 1023.49 1023.72 1023.97 1024.32 1024.44 1024.37 1024.48 1024.42 1024.11 1023.61 1023.28 1022.77 1022.26 1021.93 1021.61 1021.38 1021.26 1020.91 1020.61 1020.65
1017.79 1018.36 1018.84 1019.41 1019.89 1019.95 1020.04 1020.23 1020.34 1020.56 1020.71 1020.68 1021.00 1021.34 1021.72 1022.30 1022.80 1023.17 1023.47 1023.66 1023.81 1023.92 1024.08 1024.20 1024.36 1024.57 1024.76 1024.76 1024.72 1024.71 1024.50 1024.02 1023.57 1023.25 1022.81 1022.35 1022.05 1021.74 1021.46 1021.11 1020.76 1020.46 1020.13
1018.04 1018.50 1018.96 1019.48 1019.85 1020.01 1020.07 1020.17 1020.53 1020.77 1020.98 1021.32 1021.71 1022.07 1022.45 1022.93 1023.40 1023.67 1023.90 1023.94 1024.22 1024.53 1024.76 1024.93 1025.03 1025.04 1025.00 1024.99 1025.00 1024.86 1024.60 1024.31 1023.92 1023.44 1022.91 1022.57 1022.34 1022.10 1021.75 1021.34 1020.86 1020.36 1019.91
Thickness
5725 5732 5725 5726 5728 5724 5724 5721 5719 5718 5719 5718 5716 5718 5718 5717 5715 5716 5715 5713 5713 5712 5713 5713 5711 5713 5713 5715 5715 5713 5710 5709 5701 5694 5693 5689 5686 5683 5681 5680 5678 5677 5675
5725 5729 5722 5725 5725 5721 5722 5721 5716 5713 5713 5713 5713 5712 5712 5712 5711 5711 5710 5709 5709 5708 5707 5708 5708 5710 5709 5709 5709 5709 5709 5707 5702 5694 5687 5681 5676 5673 5671 5670 5667 5667 5666
5728 5725 5722 5722 5719 5718 5719 5717 5714 5711 5709 5709 5708 5708 5708 5705 5705 5705 5704 5703 5704 5703 5702 5703 5704 5706 5704 5703 5703 5703 5703 5702 5698 5692 5683 5676 5669 5665 5663 5660 5659 5657 5655
5737 5726 5722 5719 5714 5715 5717 5715 5710 5708 5706 5704 5702 5703 5703 5701 5700 5699 5698 5697 5697 5697 5695 5697 5698 5698 5696 5696 5695 5695 5696 5694 5689 5683 5675 5669 5664 5658 5656 5653 5649 5645 5643
5743 5734 5725 5718 5715 5712 5714 5712 5708 5705 5702 5699 5698 5699 5697 5696 5694 5693 5692 5691 5690 5689 5688 5689 5690 5691 5692 5691 5689 5687 5686 5684 5680 5674 5668 5662 5657 5651 5648 5643 5638 5634 5631
5735 5735 5728 5720 5714 5713 5710 5708 5704 5700 5697 5696 5693 5693 5691 5687 5688 5690 5687 5685 5684 5682 5680 5680 5681 5682 5683 5683 5681 5680 5677 5674 5670 5665 5659 5654 5649 5644 5639 5634 5628 5625 5623
5731 5728 5722 5715 5716 5710 5706 5705 5700 5696 5693 5691 5688 5686 5684 5682 5683 5684 5682 5678 5676 5673 5672 5671 5671 5671 5671 5671 5670 5668 5665 5663 5660 5656 5648 5643 5638 5634 5629 5624 5619 5617 5611
5725 5721 5719 5715 5714 5707 5701 5701 5697 5695 5692 5686 5683 5680 5679 5677 5677 5677 5675 5672 5668 5665 5663 5661 5660 5659 5658 5657 5655 5652 5648 5646 5643 5640 5636 5632 5629 5625 5620 5616 5611 5603 5597
5725 5715 5708 5707 5707 5705 5701 5698 5696 5695 5690 5683 5678 5675 5675 5672 5671 5671 5669 5664 5659 5656 5655 5654 5651 5649 5648 5646 5642 5637 5633 5630 5628 5626 5622 5618 5614 5611 5607 5601 5596 5593 5587
5721 5711 5708 5705 5705 5704 5704 5698 5694 5689 5687 5681 5673 5668 5668 5667 5666 5665 5663 5658 5651 5648 5645 5643 5641 5639 5637 5633 5629 5624 5619 5615 5612 5610 5606 5602 5600 5596 5593 5590 5586 5583 5580
5713 5705 5701 5704 5700 5703 5701 5698 5690 5683 5677 5672 5670 5664 5660 5658 5659 5657 5655 5653 5648 5641 5638 5634 5631 5629 5626 5622 5618 5613 5609 5606 5600 5595 5591 5587 5585 5582 5579 5576 5574 5570 5565
5701 5696 5696 5697 5693 5697 5699 5692 5684 5676 5669 5663 5659 5655 5653 5651 5650 5648 5648 5644 5639 5634 5628 5624 5619 5616 5613 5609 5606 5602 5599 5594 5587 5582 5577 5573 5570 5568 5566 5564 5562 5559 5557
5692 5688 5689 5686 5684 5684 5689 5683 5677 5670 5663 5655 5651 5648 5645 5642 5639 5638 5636 5633 5628 5622 5617 5612 5609 5605 5601 5597 5594 5590 5586 5581 5575 5569 5563 5560 5558 5556 5554 5553 5551 5549 5546
5678 5679 5679 5675 5674 5675 5675 5671 5667 5662 5656 5649 5645 5640 5635 5632 5629 5626 5624 5621 5617 5611 5606 5601 5597 5592 5589 5585 5580 5576 5571 5568 5564 5557 5552 5548 5546 5543 5540 5537 5535 5533 5530
5674 5667 5667 5666 5664 5659 5655 5654 5655 5650 5651 5644 5639 5634 5628 5622 5618 5614 5612 5608 5604 5600 5595 5590 5585 5580 5575 5570 5564 5560 5555 5552 5549 5545 5540 5536 5533 5530 5527 5525 5521 5519 5517
5660 5659 5658 5655 5654 5650 5645 5641 5639 5638 5636 5633 5629 5624 5617 5613 5607 5604 5601 5598 5594 5590 5582 5573 5569 5566 5562 5557 5553 5548 5543 5539 5535 5532 5527 5523 5520 5517 5514 5512 5509 5507 5505
5650 5649 5645 5645 5641 5637 5633 5632 5629 5624 5622 5619 5616 5612 5607 5602 5596 5593 5590 5586 5581 5577 5571 5562 5557 5553 5549 5546 5542 5538 5534 5530 5525 5522 5518 5514 5511 5508 5504 5502 5499 5497 5496
5643 5638 5638 5635 5634 5626 5621 5619 5617 5615 5611 5606 5603 5599 5596 5591 5585 5581 5578 5574 5567 5562 5557 5553 5549 5544 5540 5536 5533 5531 5525 5521 5518 5514 5510 5506 5503 5499 5497 5494 5491 5488 5485
5636 5633 5629 5627 5622 5614 5610 5609 5608 5605 5600 5596 5592 5590 5585 5579 5574 5570 5565 5560 5556 5551 5548 5544 5542 5537 5532 5528 5526 5521 5516 5512 5510 5506 5503 5499 5495 5491 5489 5486 5483 5482 5478
5631 5627 5622 5618 5610 5604 5601 5600 5597 5593 5589 5585 5581 5578 5574 5568 5562 5558 5554 5550 5546 5543 5541 5537 5535 5531 5527 5523 5519 5512 5507 5504 5500 5497 5493 5490 5486 5482 5479 5476 5473 5469 5469
5623 5618 5614 5607 5601 5596 5594 5592 5588 5584 5582 5577 5573 5571 5565 5560 5556 5551 5545 5542 5539 5537 5534 5531 5527 5523 5519 5514 5510 5504 5498 5495 5491 5486 5482 5479 5476 5472 5470 5467 5463 5460 5457
5615 5611 5604 5600 5598 5593 5589 5585 5580 5580 5578 5573 5567 5562 5557 5550 5544 5542 5537 5535 5533 5530 5527 5523 5518 5512 5507 5502 5496 5492 5487 5482 5478 5474 5470 5467 5464 5461 5458 5456 5453 5451 5448
5605 5600 5596 5594 5591 5588 5584 5580 5576 5574 5572 5568 5561 5555 5550 5544 5539 5534 5531 5531 5527 5523 5520 5515 5509 5500 5493 5487 5482 5477 5472 5467 5464 5462 5461 5458 5454 5451 5449 5446 5444 5441 5438
5599 5596 5590 5585 5581 5575 5573 5571 5568 5567 5566 5561 5556 5550 5544 5538 5534 5527 5522 5517 5513 5507 5504 5498 5492 5485 5478 5473 5469 5463 5459 5456 5454 5451 5450 5448 5446 5443 5439 5435 5433 5432 5429
5590 5585 5580 5574 5568 5565 5564 5562 5559 5555 5553 5551 5546 5541 5535 5527 5520 5513 5506 5502 5498 5494 5489 5483 5477 5470 5464 5459 5454 5450 5447 5446 5444 5441 5439 5436 5434 5431 5428 5426 5424 5422 5421
5580 5576 5571 5565 5561 5559 5557 5553 5548 5545 5542 5537 5531 5526 5520 5513 5505 5500 5495 5491 5485 5479 5473 5467 5461 5456 5451 5446 5441 5437 5435 5432 5430 5428 5426 5423 5420 5416 5414 5412 5412 5412 5411